Temp
-7 -7 -6 -6 -7 -8 -8 -7 -7 -7 -7 -7 -6 -6 -6 -6 -6 -6 -6 -6 -6 -6 -6 -6 -6 -6 -6 -5 -5 -5 -5 -6 -6 -6 -6 -6 -7 -7 -7 -8 -8 -8 -8 -8 -8 -8 -8 -8 -8
-7 -7 -7 -7 -8 -8 -8 -7 -7 -6 -6 -6 -6 -6 -6 -6 -6 -6 -6 -7 -6 -6 -6 -6 -6 -6 -6 -6 -5 -5 -6 -6 -6 -6 -6 -7 -7 -7 -8 -8 -8 -8 -9 -8 -8 -8 -8 -9 -8
-8 -7 -7 -6 -7 -8 -8 -7 -6 -6 -6 -6 -6 -7 -7 -7 -6 -6 -7 -7 -7 -6 -6 -6 -6 -6 -6 -6 -6 -6 -6 -6 -6 -7 -7 -7 -7 -7 -8 -8 -8 -9 -9 -9 -9 -9 -9 -9 -9
-7 -7 -7 -7 -8 -7 -7 -7 -6 -7 -7 -6 -6 -6 -7 -7 -7 -7 -7 -7 -7 -7 -7 -7 -7 -7 -6 -6 -6 -6 -6 -7 -7 -7 -7 -7 -7 -8 -8 -8 -9 -9 -9 -9 -9 -9 -9 -9 -9
-7 -7 -7 -7 -7 -6 -7 -7 -7 -7 -6 -6 -6 -6 -7 -7 -7 -7 -7 -7 -7 -7 -7 -6 -7 -6 -6 -6 -6 -6 -7 -7 -7 -7 -7 -7 -7 -8 -8 -9 -9 -9 -9 -9 -9 -9 -9 -9 -9
-7 -7 -8 -8 -8 -7 -7 -7 -7 -7 -7 -6 -6 -6 -6 -7 -7 -7 -7 -7 -7 -7 -7 -7 -7 -7 -7 -6 -6 -6 -7 -7 -7 -7 -7 -8 -8 -8 -9 -9 -9 -9 -9 -9 -9 -9 -9 -9 -9
-7 -7 -8 -8 -8 -7 -7 -7 -7 -7 -7 -7 -6 -7 -6 -8 -7 -7 -7 -7 -7 -7 -7 -7 -7 -7 -7 -7 -7 -7 -7 -7 -7 -7 -7 -7 -8 -8 -9 -9 -9 -9 -9 -10 -9 -9 -9 -9 -9
-7 -7 -7 -7 -8 -8 -7 -7 -7 -7 -7 -7 -6 -6 -6 -7 -7 -7 -7 -7 -7 -7 -7 -7 -7 -7 -8 -8 -7 -7 -7 -7 -7 -7 -7 -7 -8 -8 -9 -9 -9 -9 -9 -10 -10 -9 -9 -10 -9
-6 -7 -8 -8 -8 -8 -7 -7 -8 -8 -7 -7 -7 -7 -6 -7 -7 -7 -8 -8 -8 -8 -8 -8 -8 -8 -8 -8 -8 -8 -8 -7 -7 -7 -7 -8 -8 -8 -9 -9 -9 -9 -9 -10 -10 -10 -9 -9 -10
-6 -7 -7 -8 -8 -8 -8 -8 -8 -8 -7 -7 -7 -7 -7 -7 -8 -8 -8 -8 -8 -8 -8 -8 -8 -8 -8 -9 -8 -8 -8 -8 -8 -8 -8 -8 -8 -8 -9 -9 -9 -9 -9 -10 -10 -10 -10 -10 -10
-6 -6 -8 -8 -9 -9 -8 -8 -8 -8 -8 -8 -8 -7 -8 -8 -8 -8 -9 -9 -8 -8 -8 -8 -8 -8 -8 -8 -9 -9 -8 -8 -8 -8 -8 -8 -9 -9 -9 -9 -10 -10 -10 -10 -10 -10 -10 -10 -10
-6 -7 -7 -8 -9 -9 -9 -9 -9 -8 -8 -8 -8 -8 -8 -8 -8 -8 -8 -8 -8 -9 -9 -9 -8 -8 -8 -9 -9 -9 -9 -9 -9 -9 -9 -9 -9 -9 -10 -10 -10 -10 -10 -10 -10 -10 -10 -10 -10
-6 -7 -7 -7 -9 -9 -9 -9 -9 -9 -9 -9 -9 -9 -9 -9 -9 -9 -8 -9 -9 -9 -9 -9 -9 -9 -9 -9 -9 -9 -9 -9 -10 -9 -9 -9 -10 -10 -10 -10 -10 -10 -10 -10 -10 -10 -10 -10 -10
-6 -6 -7 -7 -8 -9 -9 -10 -10 -9 -9 -9 -9 -9 -9 -9 -9 -9 -9 -9 -10 -10 -10 -10 -10 -9 -9 -9 -10 -10 -10 -10 -10 -10 -10 -10 -10 -10 -10 -11 -11 -11 -11 -11 -11 -11 -11 -11 -11
-7 -7 -7 -7 -8 -8 -9 -9 -10 -9 -9 -9 -9 -9 -9 -10 -9 -9 -9 -10 -10 -10 -11 -11 -11 -10 -10 -10 -10 -10 -10 -11 -11 -11 -11 -11 -11 -11 -11 -11 -11 -11 -11 -11 -11 -11 -11 -11 -11
-7 -7 -7 -7 -7 -8 -9 -9 -9 -10 -10 -9 -9 -9 -10 -9 -9 -9 -9 -9 -9 -10 -10 -11 -11 -11 -11 -11 -11 -11 -11 -11 -11 -11 -11 -11 -11 -11 -11 -12 -12 -12 -12 -12 -12 -12 -12 -12 -12
-7 -8 -8 -7 -7 -8 -9 -9 -10 -10 -9 -9 -9 -9 -9 -10 -9 -9 -8 -9 -9 -10 -10 -10 -10 -11 -11 -11 -11 -11 -12 -11 -11 -12 -12 -12 -12 -12 -12 -12 -12 -12 -12 -12 -12 -12 -12 -12 -12
-7 -8 -8 -9 -8 -8 -9 -9 -9 -9 -10 -10 -10 -10 -10 -10 -9 -9 -9 -9 -9 -10 -10 -10 -11 -11 -11 -11 -11 -12 -12 -12 -12 -11 -12 -12 -12 -12 -12 -12 -12 -12 -12 -12 -12 -12 -12 -12 -12
-7 -8 -8 -9 -9 -8 -9 -9 -9 -10 -10 -10 -10 -10 -10 -10 -10 -9 -9 -9 -9 -9 -10 -10 -10 -10 -11 -11 -11 -11 -11 -12 -12 -11 -12 -12 -12 -12 -12 -12 -12 -12 -12 -12 -12 -12 -12 -12 -11
-8 -8 -8 -9 -9 -9 -9 -9 -9 -9 -10 -10 -11 -11 -10 -10 -10 -10 -10 -10 -10 -9 -10 -11 -11 -11 -11 -11 -11 -11 -11 -11 -11 -11 -12 -12 -12 -12 -12 -11 -12 -12 -12 -12 -12 -12 -12 -12 -12
-8 -8 -8 -9 -9 -9 -9 -9 -9 -9 -10 -10 -10 -11 -11 -11 -11 -11 -11 -11 -10 -10 -10 -10 -11 -11 -11 -11 -11 -11 -11 -11 -11 -11 -11 -11 -12 -12 -12 -12 -12 -11 -12 -12 -12 -12 -12 -12 -12
-10 -9 -10 -9 -9 -9 -10 -10 -11 -10 -9 -10 -11 -11 -11 -11 -11 -11 -11 -11 -11 -11 -11 -11 -11 -10 -10 -10 -11 -11 -11 -11 -11 -11 -11 -11 -12 -12 -12 -12 -11 -11 -12 -12 -12 -12 -13 -13 -13
-10 -11 -10 -10 -10 -10 -11 -10 -10 -12 -13 -9 -10 -11 -11 -11 -11 -11 -11 -11 -11 -11 -11 -11 -11 -11 -11 -11 -11 -11 -11 -11 -12 -11 -11 -12 -12 -12 -12 -12 -12 -12 -12 -12 -12 -12 -13 -13 -13
-11 -11 -11 -11 -11 -11 -11 -11 -11 -12 -12 -11 -11 -12 -12 -12 -12 -11 -12 -12 -12 -12 -12 -12 -12 -12 -12 -12 -12 -12 -12 -12 -12 -13 -13 -12 -12 -12 -12 -12 -12 -12 -12 -12 -13 -13 -13 -13 -13
-13 -13 -13 -14 -13 -12 -13 -13 -12 -13 -13 -13 -12 -12 -11 -12 -12 -12 -12 -12 -12 -12 -12 -12 -12 -12 -12 -12 -13 -13 -12 -12 -12 -12 -13 -13 -12 -12 -12 -12 -12 -12 -12 -13 -13 -13 -13 -13 -13
-14 -15 -14 -13 -13 -12 -12 -12 -13 -14 -13 -12 -12 -13 -13 -13 -13 -13 -13 -13 -12 -12 -12 -13 -13 -13 -13 -13 -13 -13 -13 -13 -12 -12 -13 -12 -12 -12 -12 -13 -13 -13 -13 -13 -13 -13 -13 -13 -13
-14 -14 -14 -14 -14 -13 -13 -13 -13 -14 -14 -14 -14 -13 -13 -13 -13 -13 -13 -13 -13 -13 -13 -13 -13 -13 -13 -13 -13 -13 -13 -13 -13 -13 -13 -13 -12 -12 -12 -12 -12 -13 -13 -13 -13 -13 -13 -14 -14
-14 -14 -14 -14 -14 -14 -13 -13 -12 -13 -13 -14 -14 -14 -14 -13 -13 -13 -13 -13 -13 -13 -13 -13 -13 -13 -13 -13 -13 -13 -13 -13 -13 -13 -13 -13 -13 -13 -13 -12 -13 -13 -13 -13 -14 -14 -14 -14 -14
-15 -14 -15 -15 -14 -14 -14 -13 -13 -13 -13 -14 -14 -14 -14 -14 -13 -13 -13 -13 -13 -13 -13 -13 -13 -13 -13 -13 -13 -13 -13 -13 -14 -13 -13 -13 -13 -13 -13 -13 -14 -14 -14 -14 -14 -14 -14 -15 -15
-15 -15 -17 -16 -16 -15 -15 -15 -14 -14 -14 -13 -14 -14 -14 -14 -14 -14 -14 -14 -13 -13 -13 -13 -13 -13 -13 -13 -13 -13 -14 -14 -13 -13 -14 -13 -14 -14 -14 -14 -14 -14 -14 -15 -16 -16 -15 -15 -15
Height
5914 5915 5916 5919 5924 5923 5923 5923 5923 5922 5921 5920 5919 5918 5917 5916 5915 5918 5916 5917 5917 5917 5916 5915 5914 5913 5913 5912 5910 5909 5909 5908 5907 5907 5906 5906 5905 5906 5905 5905 5905 5905 5905 5905 5904 5904 5904 5903 5903
5913 5914 5916 5919 5922 5926 5923 5922 5922 5921 5919 5918 5918 5917 5917 5916 5915 5914 5915 5916 5916 5916 5916 5914 5914 5913 5912 5912 5911 5910 5909 5908 5907 5907 5907 5906 5906 5906 5906 5905 5906 5905 5906 5906 5905 5905 5905 5904 5904
5912 5914 5916 5917 5920 5925 5924 5920 5920 5920 5919 5918 5916 5915 5915 5914 5914 5914 5914 5915 5915 5915 5915 5913 5913 5912 5912 5911 5911 5909 5909 5908 5908 5907 5907 5907 5907 5906 5905 5905 5905 5905 5906 5906 5906 5906 5905 5905 5904
5911 5914 5916 5917 5918 5918 5919 5920 5919 5919 5917 5917 5915 5914 5913 5914 5913 5913 5912 5914 5914 5914 5914 5913 5912 5912 5911 5911 5910 5908 5908 5909 5908 5908 5907 5907 5907 5906 5906 5905 5905 5906 5906 5906 5906 5906 5906 5905 5904
5910 5912 5914 5916 5917 5917 5917 5918 5918 5918 5918 5917 5914 5912 5912 5912 5912 5912 5913 5912 5912 5913 5913 5912 5912 5911 5911 5911 5909 5908 5907 5907 5908 5907 5907 5907 5907 5907 5907 5906 5906 5907 5907 5907 5906 5905 5905 5904 5904
5908 5911 5913 5915 5916 5915 5916 5917 5917 5916 5917 5916 5914 5911 5910 5909 5910 5910 5911 5911 5911 5911 5911 5911 5910 5911 5911 5910 5909 5908 5907 5907 5907 5907 5907 5906 5906 5907 5907 5907 5906 5906 5906 5905 5905 5904 5904 5904 5904
5905 5909 5910 5911 5913 5913 5915 5915 5915 5915 5914 5913 5911 5909 5907 5907 5908 5909 5909 5910 5910 5910 5910 5910 5909 5909 5909 5909 5908 5907 5907 5907 5907 5906 5906 5906 5905 5905 5906 5906 5906 5905 5906 5905 5905 5905 5904 5905 5904
5901 5904 5907 5910 5913 5911 5912 5913 5914 5914 5914 5911 5909 5907 5907 5907 5908 5909 5908 5909 5910 5909 5909 5908 5907 5907 5907 5907 5906 5906 5905 5905 5906 5905 5904 5905 5903 5903 5904 5905 5905 5905 5905 5905 5904 5904 5905 5905 5904
5897 5900 5904 5909 5911 5909 5909 5910 5911 5910 5909 5909 5908 5907 5907 5907 5907 5907 5907 5908 5908 5908 5907 5905 5905 5905 5905 5904 5904 5904 5904 5904 5905 5904 5903 5903 5902 5901 5902 5903 5903 5904 5904 5904 5904 5904 5904 5904 5903
5892 5896 5901 5905 5906 5906 5906 5907 5908 5907 5907 5907 5907 5906 5906 5906 5906 5906 5906 5906 5906 5905 5904 5904 5903 5903 5903 5903 5903 5902 5902 5903 5903 5903 5902 5900 5900 5900 5899 5900 5901 5902 5903 5903 5903 5902 5902 5902 5902
5890 5893 5897 5897 5899 5901 5902 5904 5906 5906 5906 5906 5905 5905 5904 5904 5904 5904 5904 5904 5904 5903 5902 5902 5901 5901 5901 5902 5902 5901 5900 5901 5901 5901 5900 5899 5899 5899 5898 5898 5898 5899 5900 5901 5901 5901 5900 5900 5900
5885 5887 5887 5890 5893 5895 5898 5899 5902 5904 5904 5903 5903 5903 5902 5903 5903 5901 5901 5902 5901 5901 5900 5900 5900 5899 5898 5899 5899 5899 5899 5898 5898 5898 5898 5897 5897 5897 5897 5896 5897 5898 5898 5899 5899 5898 5898 5898 5897
5881 5882 5882 5884 5887 5889 5891 5894 5896 5898 5900 5901 5900 5900 5899 5899 5899 5899 5898 5898 5898 5897 5897 5897 5897 5896 5896 5896 5895 5895 5895 5895 5895 5895 5896 5896 5895 5895 5896 5896 5895 5895 5896 5896 5895 5895 5895 5895 5894
5877 5878 5879 5880 5882 5884 5886 5886 5889 5892 5895 5897 5897 5897 5897 5896 5895 5894 5894 5894 5892 5892 5892 5893 5893 5893 5893 5894 5894 5893 5892 5891 5892 5893 5893 5893 5893 5893 5893 5893 5894 5893 5893 5892 5892 5893 5892 5892 5891
5871 5873 5874 5875 5877 5878 5879 5881 5882 5886 5888 5890 5892 5892 5892 5891 5891 5890 5890 5890 5890 5889 5889 5889 5889 5889 5890 5890 5891 5890 5889 5889 5889 5889 5890 5891 5890 5890 5889 5889 5891 5890 5890 5889 5889 5889 5888 5888 5887
5865 5867 5869 5870 5871 5872 5874 5877 5875 5879 5881 5883 5884 5885 5886 5886 5887 5885 5885 5885 5885 5885 5885 5885 5885 5886 5886 5887 5887 5886 5886 5885 5886 5886 5886 5885 5886 5886 5886 5885 5886 5886 5886 5886 5885 5885 5884 5884 5883
5860 5861 5863 5863 5865 5865 5868 5873 5868 5872 5874 5875 5877 5878 5879 5879 5880 5880 5880 5879 5879 5880 5881 5881 5881 5882 5882 5882 5881 5881 5882 5881 5881 5881 5880 5881 5881 5881 5881 5881 5881 5881 5881 5881 5880 5880 5879 5879 5878
5853 5855 5856 5858 5860 5859 5861 5865 5861 5866 5867 5868 5871 5872 5873 5873 5872 5874 5874 5874 5874 5874 5875 5876 5876 5877 5877 5877 5877 5876 5875 5876 5876 5875 5875 5875 5876 5876 5875 5875 5874 5874 5874 5875 5874 5874 5873 5873 5871
5847 5847 5850 5852 5852 5853 5853 5855 5852 5856 5858 5860 5862 5863 5866 5866 5867 5866 5867 5867 5867 5867 5868 5869 5870 5871 5871 5871 5871 5871 5870 5870 5870 5869 5868 5867 5868 5868 5867 5867 5867 5866 5865 5866 5866 5866 5865 5865 5863
5839 5840 5842 5843 5844 5846 5847 5847 5849 5846 5851 5851 5852 5854 5856 5858 5860 5861 5860 5860 5861 5861 5862 5863 5863 5863 5864 5864 5864 5863 5862 5862 5862 5861 5859 5859 5858 5859 5858 5858 5857 5856 5856 5856 5857 5857 5856 5855 5854
5832 5833 5835 5836 5832 5834 5837 5837 5839 5836 5842 5843 5845 5846 5848 5851 5853 5852 5853 5853 5854 5855 5854 5854 5855 5855 5855 5855 5854 5854 5853 5852 5852 5851 5851 5850 5850 5850 5850 5849 5848 5847 5844 5845 5847 5847 5846 5845 5844
5823 5824 5825 5826 5826 5828 5828 5827 5830 5830 5832 5832 5836 5839 5842 5842 5844 5844 5844 5845 5845 5846 5846 5846 5846 5846 5845 5845 5845 5844 5843 5841 5840 5839 5839 5839 5839 5839 5839 5838 5836 5833 5832 5835 5836 5835 5834 5835 5834
5816 5815 5815 5817 5817 5818 5819 5817 5821 5825 5822 5825 5830 5832 5832 5833 5834 5835 5836 5836 5836 5836 5836 5836 5837 5837 5837 5836 5836 5835 5833 5831 5830 5830 5828 5827 5828 5828 5828 5828 5826 5824 5824 5824 5824 5824 5823 5823 5823
5808 5807 5808 5808 5809 5805 5810 5810 5811 5815 5813 5815 5820 5821 5822 5823 5824 5825 5826 5827 5827 5827 5827 5826 5826 5826 5826 5826 5825 5825 5824 5822 5821 5820 5819 5818 5817 5816 5816 5815 5814 5813 5813 5813 5812 5812 5812 5812 5811
5801 5800 5801 5801 5800 5797 5803 5800 5801 5802 5806 5801 5807 5808 5810 5811 5813 5814 5815 5816 5816 5816 5816 5816 5816 5816 5815 5814 5814 5813 5813 5812 5810 5809 5807 5806 5806 5805 5803 5803 5802 5801 5800 5800 5800 5800 5800 5800 5799
5793 5794 5796 5795 5797 5798 5800 5794 5792 5791 5790 5792 5794 5798 5798 5800 5802 5803 5804 5804 5804 5805 5805 5805 5805 5804 5804 5803 5803 5802 5801 5801 5799 5798 5797 5794 5793 5793 5791 5790 5790 5789 5788 5788 5788 5788 5788 5787 5787
5790 5783 5787 5781 5783 5784 5788 5790 5780 5779 5777 5780 5783 5785 5788 5789 5790 5792 5793 5794 5794 5795 5795 5794 5793 5792 5792 5792 5792 5791 5790 5790 5788 5786 5786 5784 5783 5781 5780 5779 5777 5777 5777 5775 5775 5775 5775 5773 5772
5775 5778 5774 5776 5774 5774 5776 5780 5781 5763 5765 5768 5771 5772 5774 5776 5778 5779 5780 5781 5782 5782 5782 5781 5780 5780 5780 5780 5780 5779 5778 5777 5776 5774 5773 5771 5770 5768 5767 5765 5761 5762 5762 5762 5762 5761 5759 5757 5757
5765 5761 5761 5761 5762 5761 5764 5771 5758 5755 5753 5754 5758 5760 5761 5763 5764 5765 5767 5769 5769 5770 5769 5769 5768 5767 5766 5766 5765 5765 5764 5763 5761 5760 5758 5757 5757 5756 5754 5752 5750 5749 5748 5747 5746 5745 5745 5744 5741
5747 5748 5748 5749 5748 5750 5750 5753 5743 5744 5741 5739 5743 5747 5748 5748 5750 5752 5753 5754 5756 5756 5757 5756 5754 5753 5752 5751 5751 5750 5749 5747 5745 5744 5741 5741 5741 5739 5738 5738 5737 5735 5734 5731 5730 5730 5730 5729 5726
Wind_Speed
11 10 7 4 7 6 5 6 9 6 5 10 6 6 7 7 7 6 5 5 3 1 3 5 6 7 8 7 6 5 5 7 8 8 9 9 9 10 10 11 11 12 13 13 11 9 6 5 6
14 12 8 5 4 5 5 7 11 5 2 10 9 5 6 7 8 9 7 6 4 2 1 4 6 7 8 8 7 5 4 3 4 5 7 8 8 9 10 10 10 12 12 11 10 8 6 4 4
17 13 10 6 4 7 6 12 9 10 9 12 10 9 8 8 8 9 6 5 4 3 1 3 5 6 8 8 6 6 5 2 2 4 6 7 7 7 8 8 9 10 10 9 9 7 5 2 3
17 15 14 9 9 16 10 11 8 8 6 8 8 12 10 11 8 8 9 6 5 4 3 3 4 6 7 8 5 4 4 3 2 2 4 5 6 7 6 7 7 7 6 6 7 6 4 3 4
18 16 14 11 10 10 11 14 10 8 8 6 5 7 14 13 11 9 7 5 4 3 3 4 5 7 7 8 6 5 3 3 1 1 3 4 5 6 7 6 5 4 4 6 7 7 5 3 3
20 18 17 12 12 11 14 13 9 11 6 7 9 8 12 17 12 10 8 4 3 4 5 7 8 9 9 9 7 5 5 4 4 1 1 4 5 6 7 6 4 1 2 4 6 6 7 6 4
21 21 20 21 17 14 14 14 11 11 9 10 9 10 10 19 13 10 6 4 5 6 7 9 10 11 11 10 9 7 6 6 5 4 2 1 4 6 7 7 5 3 2 2 3 4 4 5 4
21 23 23 19 17 19 15 15 14 11 8 9 10 11 8 17 14 11 5 4 4 8 12 14 15 14 13 12 10 9 8 7 6 6 5 4 3 5 7 6 5 4 2 3 4 4 5 4 3
21 26 24 22 19 22 20 16 14 14 11 8 11 15 14 13 12 10 7 6 7 11 12 11 12 12 12 12 11 10 10 9 9 7 6 7 4 5 6 7 6 4 4 4 5 6 5 5 6
22 22 21 24 25 25 22 20 17 15 15 11 10 14 15 13 12 10 9 10 10 9 9 11 11 10 10 10 9 8 9 9 8 6 6 6 6 7 8 8 8 7 7 6 5 5 6 7 8
23 18 21 29 30 29 27 23 21 18 17 13 9 9 13 15 16 15 13 13 12 10 9 11 9 9 9 9 9 8 8 9 9 9 9 8 9 9 10 10 11 10 9 9 9 8 8 10 10
22 22 28 29 32 32 30 30 26 24 18 14 11 9 10 14 17 18 17 16 15 13 14 13 11 10 9 9 9 9 10 10 11 11 10 9 10 11 12 12 12 12 12 11 11 11 11 11 12
23 27 29 30 34 35 35 32 29 25 21 16 15 13 14 17 21 21 21 20 20 19 17 15 15 13 11 11 11 11 12 12 11 11 12 12 11 12 12 12 12 13 13 13 13 14 14 14 14
22 24 28 30 33 37 37 37 35 29 24 22 22 20 20 22 26 27 25 24 22 20 18 16 14 13 11 11 12 12 12 11 12 13 13 14 14 13 13 12 13 13 14 13 13 14 14 14 15
22 24 24 29 32 36 40 40 39 34 31 28 28 26 28 26 25 28 30 31 29 25 21 19 16 14 12 12 13 13 13 14 14 14 15 16 16 16 16 15 17 16 15 15 14 14 15 16 18
23 23 23 27 32 35 38 35 40 37 36 34 32 31 30 23 26 26 28 30 31 32 29 25 21 19 17 16 15 15 17 17 18 18 18 18 18 19 19 19 18 18 18 18 18 18 19 21 23
22 21 23 27 29 35 37 35 39 38 37 34 32 28 27 30 28 26 25 29 32 35 32 30 27 26 24 24 22 22 23 23 22 22 22 22 22 22 22 23 24 23 23 23 22 23 25 26 28
27 23 24 25 26 31 35 34 42 39 40 40 37 35 35 31 32 28 23 26 31 35 33 32 30 30 29 30 30 29 30 30 30 29 28 27 27 26 26 27 29 29 30 29 29 30 30 32 35
30 30 26 26 31 30 35 36 41 39 41 39 38 37 36 39 35 31 31 30 29 33 36 35 34 34 33 34 36 37 37 38 38 37 37 35 34 34 34 34 34 35 34 34 33 33 33 37 39
34 33 31 30 31 32 33 37 38 42 40 41 40 41 40 40 35 36 29 29 31 32 36 38 38 37 39 40 42 43 45 46 47 49 48 44 41 42 41 41 44 42 43 38 37 36 39 42 40
35 37 35 34 37 35 35 38 37 45 38 39 41 39 36 35 35 33 32 34 33 34 34 35 37 38 38 40 42 44 47 49 51 52 53 50 46 46 48 49 50 51 53 45 39 44 44 44 40
36 37 36 38 39 38 38 43 37 40 40 40 38 38 36 36 33 35 37 38 39 38 39 37 41 43 43 43 40 41 43 46 49 48 47 47 45 45 49 54 59 56 38 41 44 46 44 44 43
36 37 40 40 42 42 41 46 40 35 38 42 39 38 38 38 37 37 36 38 39 40 39 37 39 41 41 40 40 38 39 41 38 40 42 43 46 50 52 55 55 53 49 48 48 48 48 48 46
36 38 39 42 41 46 40 44 45 33 42 43 40 42 43 42 41 40 39 39 39 40 41 42 42 41 39 38 38 37 36 40 40 38 39 40 40 41 44 47 49 50 49 48 49 50 51 50 49
32 33 30 31 30 41 33 39 38 32 30 42 40 41 42 44 45 45 44 42 45 44 45 45 44 43 41 40 40 41 38 41 40 44 45 45 44 42 42 42 43 44 46 48 50 51 52 52 50
30 28 29 33 32 34 29 37 35 37 44 43 42 40 40 40 40 40 40 43 43 44 45 45 46 46 45 42 43 46 48 45 47 47 35 39 49 51 49 47 47 47 46 47 49 50 52 54 55
33 37 34 40 37 38 36 35 41 45 48 44 43 42 40 40 41 40 40 43 44 46 46 47 48 49 48 48 49 47 46 46 50 45 48 46 43 46 47 50 55 55 54 51 53 55 56 58 59
45 41 42 37 39 40 40 34 33 45 43 41 36 36 38 42 45 45 44 45 46 47 47 47 49 52 52 51 52 51 50 48 49 49 51 49 49 50 49 49 41 44 49 53 54 51 53 55 63
34 40 38 43 48 41 40 37 48 52 52 47 43 42 43 45 46 46 46 45 49 50 50 50 52 53 55 56 56 55 54 54 55 55 55 57 53 50 49 51 47 43 47 53 53 52 54 60 53
47 48 43 45 45 39 43 46 53 49 47 41 46 44 44 43 44 41 42 47 51 51 53 56 58 58 59 62 61 60 59 57 58 61 55 55 51 51 53 51 52 52 56 45 43 45 50 54 56
Wind_Direction
205 221 226 176 144 165 227 215 181 198 183 181 186 164 183 184 176 177 162 144 157 111 47 46 25 357 352 341 351 10 39 53 56 62 79 93 99 94 87 80 78 75 75 78 79 85 89 89 85
208 217 221 140 156 157 215 169 190 149 178 181 183 181 204 203 179 164 153 164 174 178 39 29 5 346 342 337 339 350 348 20 54 74 89 98 101 102 93 85 77 76 75 75 80 87 95 94 72
213 216 221 214 218 203 224 180 200 214 218 192 198 208 208 199 189 174 172 181 179 204 291 341 336 338 336 334 335 343 336 2 44 88 97 106 112 103 100 92 82 85 85 83 84 100 106 99 88
214 212 219 218 245 201 204 182 176 204 208 204 210 220 200 194 175 187 166 183 199 227 275 303 322 328 328 324 332 351 344 344 16 87 104 111 109 100 93 83 79 87 91 96 103 103 89 69 58
217 213 208 211 227 204 214 201 208 223 257 273 285 206 200 192 197 192 204 186 219 255 280 303 307 314 316 315 328 333 328 318 331 85 110 112 106 95 95 87 71 55 89 110 118 125 133 141 119
217 215 205 214 216 222 201 202 220 245 259 291 263 241 204 192 192 195 198 190 218 243 271 288 297 303 305 307 314 323 330 331 330 331 186 129 117 116 121 114 103 61 99 166 157 153 154 145 135
220 214 210 213 216 224 219 232 229 231 283 290 283 246 200 186 200 212 205 236 264 285 301 304 302 296 290 290 297 306 315 316 316 298 273 199 153 149 140 144 132 126 135 202 211 179 179 162 159
229 221 213 217 219 239 233 227 206 247 277 286 290 251 217 199 219 222 218 236 291 309 313 307 302 297 286 279 281 290 294 287 291 290 281 254 196 174 173 168 155 149 177 206 237 229 196 217 230
231 229 218 219 220 237 240 235 239 252 287 304 289 273 241 207 207 212 207 241 277 300 310 305 298 291 280 275 271 276 278 284 288 295 291 271 238 199 199 188 179 190 221 219 230 257 260 236 256
236 238 230 221 225 232 235 234 228 254 275 295 294 263 245 234 227 219 230 253 276 290 313 320 298 287 280 275 271 262 267 279 277 287 287 265 246 230 212 207 206 215 233 240 245 256 264 271 268
234 233 228 228 230 233 232 231 223 251 264 274 290 271 243 234 226 223 238 258 268 271 296 319 300 276 276 269 261 252 257 265 273 280 275 261 247 234 224 219 222 230 236 253 260 253 254 258 261
235 224 229 228 230 236 239 235 234 240 253 267 267 272 278 265 255 240 245 255 260 271 287 299 297 279 262 253 261 257 254 264 277 282 274 256 249 248 237 230 233 242 247 251 257 259 254 253 256
238 230 230 231 230 234 240 246 245 241 244 247 258 272 286 283 259 256 256 257 258 258 264 278 293 280 269 256 252 253 260 270 275 271 269 259 251 248 250 249 245 249 254 257 257 259 260 260 258
246 242 237 234 233 236 238 244 252 251 246 246 242 254 270 274 265 263 264 262 265 265 268 273 277 274 272 277 271 272 271 269 271 272 270 264 261 263 263 262 259 256 255 257 259 265 265 262 263
254 250 241 241 239 236 237 242 250 255 255 252 252 263 268 272 259 255 256 260 263 258 252 260 265 260 261 266 269 273 275 271 268 272 273 274 273 272 270 269 270 269 267 266 270 273 273 273 272
256 254 248 244 242 241 239 243 250 256 260 262 265 269 268 262 257 263 258 255 253 249 243 243 246 250 254 260 263 262 264 265 265 264 268 267 266 267 268 267 260 258 263 267 268 272 278 278 273
256 253 250 250 245 246 242 239 247 246 254 258 261 261 263 271 267 267 260 248 243 246 243 245 247 245 250 251 247 250 253 255 255 255 254 255 258 259 260 259 257 260 263 264 267 268 272 274 277
262 246 245 242 240 245 246 239 247 250 253 257 259 259 261 262 268 272 279 256 242 244 244 247 250 250 249 248 247 245 247 249 251 251 252 251 253 255 257 258 260 262 266 268 268 273 276 277 279
261 261 257 250 247 238 244 246 254 249 249 252 254 254 253 257 264 264 278 271 255 244 245 246 248 252 254 256 257 257 259 254 253 253 250 248 251 253 255 258 261 263 262 263 268 274 278 285 284
254 256 257 255 253 250 249 250 248 252 253 253 250 251 253 257 256 265 265 265 259 252 246 247 252 255 257 259 262 265 266 265 263 261 250 246 246 253 256 260 262 261 263 261 267 275 286 287 288
256 257 256 256 259 255 251 252 247 255 250 253 255 256 257 258 264 262 254 253 256 253 251 250 248 251 256 259 262 264 265 266 267 268 271 259 252 257 256 258 259 262 258 257 265 281 284 285 282
259 261 261 259 258 258 261 257 257 254 253 252 250 254 257 257 255 253 254 255 257 256 254 253 255 257 260 263 270 273 272 268 266 270 270 268 265 260 255 260 262 261 277 280 280 283 282 284 279
260 257 259 259 262 261 257 260 258 248 256 259 258 259 256 256 257 257 258 258 259 263 265 262 260 262 264 268 274 277 275 274 272 272 271 270 267 263 265 264 273 278 277 277 278 278 280 280 278
263 264 263 262 262 262 264 261 266 260 271 266 258 257 256 259 260 260 263 263 260 262 265 265 265 268 271 275 274 274 271 273 274 273 276 272 268 268 269 270 271 272 273 274 274 273 276 276 276
268 268 264 264 259 267 266 264 267 263 247 264 266 263 262 260 261 264 266 262 260 257 260 263 264 267 271 275 270 275 272 271 276 276 270 271 271 269 270 271 273 274 274 274 273 274 274 274 274
243 256 255 261 262 268 267 262 263 262 268 265 266 264 266 265 262 261 260 262 264 258 255 258 263 267 271 270 270 271 274 274 274 283 272 282 271 271 272 273 273 272 273 273 274 274 275 276 275
253 254 260 253 254 259 258 258 270 273 273 272 266 264 262 262 263 261 256 253 256 256 258 263 265 265 266 266 269 273 278 277 275 273 269 281 278 276 275 278 276 272 271 273 274 275 274 275 274
261 255 252 257 263 261 264 261 267 262 265 267 261 259 261 260 260 257 255 254 254 256 257 261 260 261 262 266 267 274 276 276 277 275 273 274 274 276 274 273 273 275 271 270 271 271 272 274 275
265 270 266 259 245 257 264 265 259 262 265 266 267 262 266 268 263 257 253 250 253 254 257 258 261 263 264 266 268 272 275 276 278 277 276 268 271 274 274 276 267 265 265 268 263 264 268 270 268
265 263 263 260 265 263 262 254 259 262 264 260 267 267 265 267 261 252 252 251 250 251 256 257 259 264 266 266 266 270 274 276 276 271 266 261 267 264 270 265 259 256 255 268 275 280 280 279 279